Location: ???????
(54.6339°N, 39.4245°E)
Time: 01:32:13
(UTC+00:00)

Meteor 2-4 Rocket - Pass Details

Date: 19 May 2025
Orbit: 798 x 906 km, 81.2° (Epoch: 13 June)

Event Time Altitude Azimuth Distance (km) Brightness Sun altitude
Exits shadow 20:48:51 22° 184° (S) 1,784 4.8 -15.1°
Maximum altitude 20:52:36 78° 101° (E) 901 3.8 -15.2°
Drops below altitude 10° 20:58:28 10° 16° (NNE) 2,572 7.3 -15.3°
Sets 21:00:58 0° 15° (NNE) 3,527 8.3 -15.3°
